{"data":{"norad_id":55281,"intl_designator":"2023-010N","name":"STARLINK-5298","alt_names":[],"object_type":"PAYLOAD","status":"ACTIVE","operator":null,"country":"US","launch_date":"2023-01-19","launch_site_code":"AFWTR","launch_vehicle":null,"mission":null,"orbit_class":"UNKNOWN","rcs_meters":null,"size_class":null,"mass_kg":null,"dimensions":null,"purposes":["comms"],"wikipedia_slug":null,"has_3d_model":false,"image_url":null,"decayed_at":null,"tle_current":{"epoch":"2026-05-24T21:52:16.682016Z","epoch_age_seconds":85941,"freshness":"FRESH","line1":"1 55281U 23010N   26144.91130419 -.00001224  00000+0 -94842-4 0  9993","line2":"2 55281  69.9993 212.2521 0003349 270.2550  89.8226 14.98323737184198","mean_motion":14.98323737,"eccentricity":0.0003349,"inclination_deg":69.9993,"raan_deg":212.2521,"arg_perigee_deg":270.255,"mean_anomaly_deg":89.8226,"bstar":-9.4842e-5,"rev_number":18419,"period_min":96.107400853384,"perigee_km":569.74763273726,"apogee_km":574.40288490822,"semimajor_km":6950.2122588227,"source":"CELESTRAK","updated_at":"2026-05-25T13:38:17.732823Z"}}}